EXS42GH EGHH-LTBS

Flight info

Callsign EXS42GH
Flight time 3h 41m
Altitude 37000
Route SAM Y8 GWC DCT BENBO UL612 VEULE DCT TEPRI UN491 POGZI DCT GELTA DCT LUVAL DCT BEGAR DCT TRA DCT GAMSA N871 MADEB M738 TIRUL DCT DIRAB DCT NIVAS DCT PEVAL DCT BARIT DCT ENFAR DCT TALAS DCT TSL DCT STINO DCT RIKSO UP14 ODNOD UT491 SONUP
Aircraft B738/M-SDE2E3FGHIRWXY/LB1

Departure

Time 2026-05-05 13:04
Airport Bournemouth Airport (EGHH)

Arrival

Time 2026-05-05 16:45
Airport Dalaman International Airport (LTBS)
Time Latitude Longitude Altitude Speed Heading
2026-05-05 12:35 50.77728 -1.83369 39 ft 0 kts 87°
2026-05-05 12:53 50.77726 -1.83357 41 ft 3 kts 112°
2026-05-05 12:53 50.77727 -1.83349 41 ft 0 kts 87°
2026-05-05 12:53 50.77727 -1.83363 41 ft 3 kts 89°
2026-05-05 12:53 50.77728 -1.83394 39 ft 3 kts 98°
2026-05-05 12:54 50.77741 -1.83451 38 ft 3 kts 140°
2026-05-05 12:54 50.77754 -1.83463 38 ft 1 kts 176°
2026-05-05 12:54 50.77756 -1.83463 38 ft 1 kts 177°
2026-05-05 12:57 50.77752 -1.83463 39 ft 2 kts 177°
2026-05-05 12:57 50.77720 -1.83465 41 ft 7 kts 189°
2026-05-05 12:58 50.77659 -1.83478 42 ft 11 kts 187°
2026-05-05 12:58 50.77583 -1.83547 41 ft 14 kts 240°
2026-05-05 12:58 50.77575 -1.83711 42 ft 16 kts 271°
2026-05-05 12:58 50.77586 -1.83882 43 ft 16 kts 279°
2026-05-05 12:59 50.77610 -1.84054 39 ft 16 kts 288°
2026-05-05 12:59 50.77643 -1.84219 40 ft 16 kts 288°
2026-05-05 12:59 50.77677 -1.84385 43 ft 16 kts 288°
2026-05-05 13:00 50.77724 -1.84724 43 ft 16 kts 284°
2026-05-05 13:00 50.77766 -1.84886 44 ft 16 kts 301°
2026-05-05 13:01 50.77823 -1.85343 47 ft 16 kts 250°
2026-05-05 13:01 50.77792 -1.85510 45 ft 17 kts 256°
2026-05-05 13:01 50.77749 -1.85689 43 ft 18 kts 223°
2026-05-05 13:01 50.77742 -1.85774 44 ft 9 kts 348°
2026-05-05 13:02 50.77767 -1.85702 44 ft 9 kts 80°
2026-05-05 13:02 50.77771 -1.85682 44 ft 0 kts 72°
2026-05-05 13:03 50.77778 -1.85645 44 ft 13 kts 74°
2026-05-05 13:03 50.77870 -1.85087 47 ft 92 kts 75°
2026-05-05 13:03 50.78090 -1.83746 45 ft 159 kts 76°
2026-05-05 13:03 50.78380 -1.81852 487 ft 186 kts 73°
2026-05-05 13:04 50.78776 -1.79798 1139 ft 204 kts 61°
2026-05-05 13:04 50.79477 -1.77751 1648 ft 220 kts 58°
2026-05-05 13:04 50.80248 -1.75635 2315 ft 223 kts 54°
2026-05-05 13:04 50.81098 -1.73611 2910 ft 226 kts 53°
2026-05-05 13:05 50.81959 -1.71527 3583 ft 226 kts 55°
2026-05-05 13:05 50.82816 -1.69380 3963 ft 241 kts 55°
2026-05-05 13:05 50.83724 -1.67040 4497 ft 252 kts 57°
2026-05-05 13:05 50.84632 -1.64639 5283 ft 255 kts 57°
2026-05-05 13:06 50.85543 -1.62187 6067 ft 260 kts 58°
2026-05-05 13:06 50.86448 -1.59720 6846 ft 262 kts 58°
2026-05-05 13:06 50.87364 -1.57201 7607 ft 265 kts 58°
2026-05-05 13:06 50.88298 -1.54620 8283 ft 272 kts 59°
2026-05-05 13:07 50.89241 -1.52005 8967 ft 278 kts 58°
2026-05-05 13:07 50.90202 -1.49326 9729 ft 282 kts 60°
2026-05-05 13:07 50.91187 -1.46580 10277 ft 293 kts 59°
2026-05-05 13:07 50.92237 -1.43650 10432 ft 317 kts 59°
2026-05-05 13:08 50.93358 -1.40516 10749 ft 333 kts 60°
2026-05-05 13:08 50.94112 -1.38401 11256 ft 333 kts 60°
2026-05-05 13:08 50.94937 -1.34966 11955 ft 338 kts 79°
2026-05-05 13:08 50.94985 -1.31217 12719 ft 342 kts 97°
2026-05-05 13:09 50.94234 -1.26317 13583 ft 349 kts 103°
2026-05-05 13:09 50.93795 -1.23814 14114 ft 347 kts 103°
2026-05-05 13:09 50.93146 -1.20150 14712 ft 352 kts 104°
2026-05-05 13:09 50.92481 -1.16372 15229 ft 358 kts 104°
2026-05-05 13:10 50.91816 -1.12551 15846 ft 361 kts 104°
2026-05-05 13:10 50.91153 -1.08692 16449 ft 365 kts 104°
2026-05-05 13:10 50.90486 -1.04793 17062 ft 368 kts 105°
2026-05-05 13:10 50.89815 -1.00858 17610 ft 373 kts 105°
2026-05-05 13:11 50.89129 -0.96839 18167 ft 377 kts 105°
2026-05-05 13:11 50.88442 -0.92817 18701 ft 380 kts 105°
2026-05-05 13:11 50.87753 -0.88785 19316 ft 380 kts 105°
2026-05-05 13:11 50.87053 -0.84711 19776 ft 385 kts 105°
2026-05-05 13:12 50.86355 -0.80656 20234 ft 389 kts 105°
2026-05-05 13:12 50.85450 -0.76597 20700 ft 392 kts 115°
2026-05-05 13:12 50.84090 -0.72851 21217 ft 395 kts 126°
2026-05-05 13:12 50.82377 -0.69433 21728 ft 396 kts 130°
2026-05-05 13:13 50.80597 -0.66071 22184 ft 400 kts 130°
2026-05-05 13:13 50.78794 -0.62692 22606 ft 404 kts 130°
2026-05-05 13:13 50.76971 -0.59266 23066 ft 407 kts 130°
2026-05-05 13:13 50.75171 -0.55866 23510 ft 410 kts 130°
2026-05-05 13:14 50.73340 -0.52389 23907 ft 412 kts 130°
2026-05-05 13:14 50.71508 -0.48903 24374 ft 412 kts 131°
2026-05-05 13:14 50.69682 -0.45425 24876 ft 411 kts 131°
2026-05-05 13:14 50.67854 -0.41945 25271 ft 413 kts 131°
2026-05-05 13:15 50.66019 -0.38453 25699 ft 413 kts 131°
2026-05-05 13:15 50.64180 -0.34960 26083 ft 415 kts 130°
2026-05-05 13:15 50.62328 -0.31449 26399 ft 418 kts 130°
2026-05-05 13:15 50.60463 -0.27918 26760 ft 420 kts 130°
2026-05-05 13:16 50.58586 -0.24368 27143 ft 421 kts 131°
2026-05-05 13:16 50.56708 -0.20822 27532 ft 422 kts 131°
2026-05-05 13:16 50.54826 -0.17272 27882 ft 423 kts 131°
2026-05-05 13:16 50.52938 -0.13715 28239 ft 424 kts 131°
2026-05-05 13:17 50.51122 -0.10115 28545 ft 427 kts 126°
2026-05-05 13:17 50.49536 -0.06141 28858 ft 430 kts 122°
2026-05-05 13:17 50.48018 -0.02106 29243 ft 430 kts 122°
2026-05-05 13:17 50.46557 0.01822 29544 ft 431 kts 121°
2026-05-05 13:18 50.45040 0.05891 29825 ft 433 kts 122°
2026-05-05 13:18 50.43504 0.09972 30096 ft 434 kts 122°
2026-05-05 13:18 50.41950 0.14062 30318 ft 436 kts 122°
2026-05-05 13:18 50.40384 0.18155 30520 ft 438 kts 122°
2026-05-05 13:19 50.38824 0.22208 30736 ft 440 kts 123°
2026-05-05 13:19 50.37241 0.26307 31045 ft 439 kts 123°
2026-05-05 13:19 50.35661 0.30390 31379 ft 437 kts 123°
2026-05-05 13:19 50.34081 0.34462 31667 ft 437 kts 123°
2026-05-05 13:20 50.32499 0.38535 31887 ft 438 kts 123°
2026-05-05 13:20 50.30908 0.42622 32132 ft 439 kts 123°
2026-05-05 13:20 50.29316 0.46709 32410 ft 438 kts 123°
2026-05-05 13:20 50.27730 0.50772 32737 ft 437 kts 123°
2026-05-05 13:21 50.26142 0.54837 32994 ft 437 kts 124°
2026-05-05 13:21 50.24573 0.58844 33178 ft 439 kts 123°
2026-05-05 13:21 50.22977 0.62916 33420 ft 438 kts 124°
2026-05-05 13:21 50.21386 0.66970 33777 ft 436 kts 124°
2026-05-05 13:22 50.19802 0.70998 34038 ft 435 kts 124°
2026-05-05 13:22 50.18213 0.75035 34207 ft 435 kts 124°
2026-05-05 13:22 50.16634 0.79040 34580 ft 431 kts 124°
2026-05-05 13:22 50.15056 0.83034 34707 ft 433 kts 124°
2026-05-05 13:23 50.11871 0.91074 34964 ft 435 kts 124°
2026-05-05 13:23 50.10283 0.95075 35188 ft 434 kts 124°
2026-05-05 13:23 50.08686 0.99095 35269 ft 437 kts 124°
2026-05-05 13:24 50.05546 1.06974 35566 ft 438 kts 124°
2026-05-05 13:24 50.03941 1.10995 35801 ft 436 kts 124°
2026-05-05 13:24 50.02332 1.15021 35940 ft 437 kts 124°
2026-05-05 13:25 49.99101 1.23081 36136 ft 440 kts 124°
2026-05-05 13:25 49.97492 1.27084 36244 ft 441 kts 124°
2026-05-05 13:25 49.95866 1.31125 36465 ft 439 kts 124°
2026-05-05 13:26 49.94253 1.35130 36756 ft 436 kts 124°
2026-05-05 13:26 49.92642 1.39126 36890 ft 436 kts 124°
2026-05-05 13:26 49.89397 1.47145 36920 ft 440 kts 124°
2026-05-05 13:27 49.86136 1.55181 36908 ft 441 kts 124°
2026-05-05 13:27 49.82857 1.63238 36899 ft 441 kts 124°
2026-05-05 13:28 49.79578 1.71271 36881 ft 441 kts 124°
2026-05-05 13:28 49.76295 1.79290 36871 ft 441 kts 124°
2026-05-05 13:29 49.73024 1.87256 36864 ft 440 kts 124°
2026-05-05 13:29 49.69737 1.95234 36863 ft 438 kts 124°
2026-05-05 13:30 49.66549 2.02951 36872 ft 436 kts 124°
2026-05-05 13:30 49.63284 2.10830 36855 ft 435 kts 124°
2026-05-05 13:31 49.60019 2.18686 36860 ft 433 kts 124°
2026-05-05 13:31 49.56781 2.26454 36833 ft 432 kts 125°
2026-05-05 13:32 49.53523 2.34246 36856 ft 432 kts 125°
2026-05-05 13:32 49.50264 2.42018 36865 ft 431 kts 125°
2026-05-05 13:33 49.47009 2.49759 36866 ft 430 kts 124°
2026-05-05 13:33 49.43772 2.57432 36863 ft 429 kts 124°
2026-05-05 13:34 49.40510 2.65145 36852 ft 430 kts 124°
2026-05-05 13:34 49.37235 2.72863 36840 ft 432 kts 125°
2026-05-05 13:35 49.33931 2.80629 36827 ft 434 kts 125°
2026-05-05 13:35 49.30645 2.88332 36820 ft 435 kts 125°
2026-05-05 13:36 49.27325 2.96091 36829 ft 434 kts 125°
2026-05-05 13:36 49.24060 3.03699 36819 ft 435 kts 125°
2026-05-05 13:37 49.20731 3.11434 36809 ft 434 kts 125°
2026-05-05 13:37 49.17401 3.19142 36822 ft 439 kts 124°
2026-05-05 13:38 49.14012 3.26968 36783 ft 441 kts 125°
2026-05-05 13:38 49.10635 3.34753 36803 ft 438 kts 125°
2026-05-05 13:39 49.07272 3.42479 36804 ft 435 kts 125°
2026-05-05 13:39 49.03920 3.50156 36814 ft 433 kts 125°
2026-05-05 13:40 49.00610 3.57715 36807 ft 431 kts 126°
2026-05-05 13:40 48.97274 3.65310 36802 ft 431 kts 126°
2026-05-05 13:41 48.93931 3.72899 36810 ft 431 kts 126°
2026-05-05 13:41 48.90595 3.80453 36818 ft 432 kts 126°
2026-05-05 13:42 48.87225 3.88062 36813 ft 434 kts 126°
2026-05-05 13:42 48.83841 3.95680 36792 ft 437 kts 126°
2026-05-05 13:43 48.80518 4.03141 36813 ft 438 kts 126°
2026-05-05 13:43 48.77084 4.10829 36822 ft 440 kts 126°
2026-05-05 13:44 48.73634 4.18531 36802 ft 442 kts 126°
2026-05-05 13:44 48.70195 4.26187 36806 ft 441 kts 126°
2026-05-05 13:45 48.66738 4.33863 36850 ft 439 kts 126°
2026-05-05 13:45 48.63267 4.41545 36798 ft 440 kts 127°
2026-05-05 13:46 48.59846 4.49097 36795 ft 436 kts 127°
2026-05-05 13:46 48.56430 4.56618 36799 ft 432 kts 127°
2026-05-05 13:47 48.53024 4.64094 36802 ft 430 kts 127°
2026-05-05 13:47 48.49620 4.71544 36818 ft 433 kts 127°
2026-05-05 13:48 48.46174 4.79065 36806 ft 438 kts 127°
2026-05-05 13:48 48.42683 4.86664 36809 ft 441 kts 127°
2026-05-05 13:49 48.39188 4.94253 36802 ft 444 kts 127°
2026-05-05 13:49 48.35728 5.01749 36793 ft 445 kts 127°
2026-05-05 13:50 48.32192 5.09385 36792 ft 444 kts 127°
2026-05-05 13:50 48.29184 5.17490 36817 ft 446 kts 113°
2026-05-05 13:51 48.27628 5.26503 36865 ft 447 kts 105°
2026-05-05 13:51 48.26338 5.35634 36813 ft 447 kts 105°
2026-05-05 13:52 48.25020 5.44744 36807 ft 445 kts 105°
2026-05-05 13:52 48.23668 5.53815 36809 ft 444 kts 106°
2026-05-05 13:53 48.22311 5.62789 36825 ft 443 kts 106°
2026-05-05 13:53 48.21166 5.70301 36846 ft 444 kts 106°
2026-05-05 13:54 48.19773 5.79393 36816 ft 449 kts 106°
2026-05-05 13:54 48.18369 5.88524 36831 ft 448 kts 106°
2026-05-05 13:55 48.16963 5.97624 36829 ft 446 kts 106°
2026-05-05 13:55 48.15536 6.06425 36808 ft 443 kts 111°
2026-05-05 13:56 48.13505 6.15089 36828 ft 439 kts 114°
2026-05-05 13:56 48.11355 6.23591 36858 ft 439 kts 114°
2026-05-05 13:57 48.09206 6.32211 36857 ft 441 kts 114°
2026-05-05 13:57 48.07083 6.40863 36827 ft 444 kts 114°
2026-05-05 13:58 48.04962 6.49535 36826 ft 446 kts 114°
2026-05-05 13:58 48.02830 6.58238 36848 ft 444 kts 114°
2026-05-05 13:59 47.99642 6.71196 36841 ft 442 kts 114°
2026-05-05 14:00 47.96455 6.84057 36841 ft 442 kts 114°
2026-05-05 14:00 47.94308 6.92670 36822 ft 443 kts 114°
2026-05-05 14:01 47.92198 7.01112 36845 ft 441 kts 114°
2026-05-05 14:01 47.90046 7.09689 36824 ft 441 kts 114°
2026-05-05 14:02 47.87905 7.18189 36839 ft 440 kts 114°
2026-05-05 14:02 47.85745 7.26732 36855 ft 440 kts 115°
2026-05-05 14:03 47.83576 7.35277 36857 ft 441 kts 115°
2026-05-05 14:03 47.81407 7.43787 36842 ft 443 kts 115°
2026-05-05 14:04 47.79210 7.52378 36844 ft 444 kts 115°
2026-05-05 14:04 47.76999 7.60994 36842 ft 446 kts 115°
2026-05-05 14:05 47.74780 7.69609 36852 ft 448 kts 115°
2026-05-05 14:05 47.72548 7.78238 36851 ft 450 kts 115°
2026-05-05 14:06 47.70287 7.86947 36868 ft 451 kts 115°
2026-05-05 14:06 47.68018 7.95655 36852 ft 452 kts 115°
2026-05-05 14:07 47.65785 8.04198 36850 ft 452 kts 115°
2026-05-05 14:07 47.63515 8.12845 36837 ft 451 kts 115°
2026-05-05 14:08 47.61232 8.21513 36851 ft 451 kts 115°
2026-05-05 14:08 47.58953 8.30129 36841 ft 450 kts 115°
2026-05-05 14:09 47.56663 8.38758 36815 ft 448 kts 116°
2026-05-05 14:09 47.54379 8.47331 36869 ft 445 kts 116°
2026-05-05 14:10 47.52101 8.55850 36868 ft 445 kts 116°
2026-05-05 14:10 47.49832 8.64303 36861 ft 444 kts 116°
2026-05-05 14:11 47.47543 8.72798 36847 ft 445 kts 116°
2026-05-05 14:11 47.45245 8.81300 36839 ft 445 kts 116°
2026-05-05 14:12 47.42944 8.89778 36836 ft 448 kts 116°
2026-05-05 14:12 47.40608 8.98355 36845 ft 451 kts 116°
2026-05-05 14:13 47.38294 9.06821 36858 ft 454 kts 116°
2026-05-05 14:13 47.35917 9.15490 36849 ft 456 kts 116°
2026-05-05 14:14 47.33526 9.24176 36859 ft 458 kts 117°
2026-05-05 14:14 47.31117 9.32899 36860 ft 459 kts 117°
2026-05-05 14:15 47.28715 9.41563 36862 ft 460 kts 117°
2026-05-05 14:15 47.26293 9.50274 36853 ft 459 kts 117°
2026-05-05 14:16 47.23863 9.58981 36824 ft 457 kts 117°
2026-05-05 14:16 47.21435 9.67635 36825 ft 457 kts 117°
2026-05-05 14:17 47.19014 9.76237 36808 ft 458 kts 117°
2026-05-05 14:17 47.16576 9.84876 36818 ft 458 kts 117°
2026-05-05 14:18 47.14123 9.93532 36806 ft 458 kts 117°
2026-05-05 14:18 47.11706 10.02033 36816 ft 459 kts 117°
2026-05-05 14:19 47.09263 10.10600 36848 ft 458 kts 118°
2026-05-05 14:19 47.06793 10.19224 36847 ft 459 kts 117°
2026-05-05 14:20 47.04306 10.27871 36856 ft 459 kts 117°
2026-05-05 14:20 47.01846 10.36398 36842 ft 459 kts 117°
2026-05-05 14:21 46.99356 10.45006 36885 ft 459 kts 117°
2026-05-05 14:21 46.96862 10.53601 36884 ft 461 kts 117°
2026-05-05 14:22 46.94336 10.62266 36885 ft 464 kts 117°
2026-05-05 14:22 46.91794 10.70972 36884 ft 465 kts 117°
2026-05-05 14:23 46.89256 10.79616 36907 ft 465 kts 117°
2026-05-05 14:23 46.86692 10.88317 36922 ft 466 kts 117°
2026-05-05 14:24 46.84115 10.97045 36933 ft 468 kts 118°
2026-05-05 14:24 46.81314 11.05365 36912 ft 461 kts 129°
2026-05-05 14:25 46.77132 11.12259 36952 ft 449 kts 142°
2026-05-05 14:25 46.72526 11.18398 36964 ft 448 kts 142°
2026-05-05 14:26 46.67954 11.24504 36949 ft 448 kts 142°
2026-05-05 14:26 46.63379 11.30669 36955 ft 448 kts 142°
2026-05-05 14:27 46.58811 11.36841 36984 ft 447 kts 142°
2026-05-05 14:27 46.54240 11.43008 36979 ft 447 kts 142°
2026-05-05 14:28 46.49703 11.49114 36987 ft 447 kts 142°
2026-05-05 14:28 46.45116 11.55268 36979 ft 449 kts 142°
2026-05-05 14:29 46.40520 11.61419 36989 ft 450 kts 142°
2026-05-05 14:29 46.35932 11.67546 36982 ft 450 kts 142°
2026-05-05 14:30 46.31312 11.73702 36976 ft 451 kts 142°
2026-05-05 14:30 46.26701 11.79830 36986 ft 452 kts 142°
2026-05-05 14:31 46.22057 11.85986 36973 ft 453 kts 142°
2026-05-05 14:31 46.17429 11.92108 36977 ft 454 kts 142°
2026-05-05 14:32 46.12761 11.98268 37004 ft 454 kts 142°
2026-05-05 14:32 46.08197 12.04278 37021 ft 452 kts 142°
2026-05-05 14:33 46.03542 12.10392 37010 ft 453 kts 142°
2026-05-05 14:33 45.98882 12.16498 37016 ft 453 kts 142°
2026-05-05 14:34 45.94241 12.22566 37001 ft 454 kts 142°
2026-05-05 14:34 45.89586 12.28694 37002 ft 455 kts 139°
2026-05-05 14:35 45.85381 12.35489 37020 ft 457 kts 134°
2026-05-05 14:35 45.81299 12.42464 37023 ft 457 kts 134°
2026-05-05 14:36 45.77176 12.49415 37021 ft 456 kts 134°
2026-05-05 14:36 45.73024 12.56313 37015 ft 456 kts 135°
2026-05-05 14:37 45.68863 12.63183 36980 ft 457 kts 134°
2026-05-05 14:37 45.64709 12.70023 36999 ft 457 kts 135°
2026-05-05 14:38 45.60526 12.76897 36981 ft 458 kts 135°
2026-05-05 14:38 45.56366 12.83718 37000 ft 458 kts 135°
2026-05-05 14:39 45.52152 12.90610 36983 ft 458 kts 135°
2026-05-05 14:39 45.47973 12.97430 36977 ft 458 kts 134°
2026-05-05 14:40 45.43858 13.04129 36993 ft 458 kts 135°
2026-05-05 14:40 45.40351 13.09824 36973 ft 459 kts 135°
2026-05-05 14:41 45.36138 13.16654 37002 ft 459 kts 135°
2026-05-05 14:41 45.31916 13.23489 36992 ft 459 kts 134°
2026-05-05 14:42 45.28378 13.31041 37101 ft 461 kts 123°
2026-05-05 14:42 45.25174 13.39004 37020 ft 465 kts 122°
2026-05-05 14:43 45.21948 13.46974 37003 ft 466 kts 123°
2026-05-05 14:43 45.18693 13.54893 36993 ft 466 kts 123°
2026-05-05 14:44 45.15402 13.62829 36995 ft 467 kts 123°
2026-05-05 14:44 45.12100 13.70760 37006 ft 467 kts 123°
2026-05-05 14:45 45.08809 13.78643 37006 ft 469 kts 123°
2026-05-05 14:45 45.05488 13.86579 37029 ft 468 kts 123°
2026-05-05 14:46 45.02158 13.94516 37045 ft 468 kts 123°
2026-05-05 14:46 44.98901 14.02258 37013 ft 469 kts 123°
2026-05-05 14:47 44.95551 14.10199 37036 ft 469 kts 123°
2026-05-05 14:47 44.92224 14.18061 37049 ft 468 kts 123°
2026-05-05 14:48 44.88875 14.25955 37011 ft 468 kts 123°
2026-05-05 14:48 44.85529 14.33818 37026 ft 467 kts 123°
2026-05-05 14:49 44.82200 14.41621 37040 ft 467 kts 123°
2026-05-05 14:49 44.78838 14.49479 37044 ft 467 kts 123°
2026-05-05 14:50 44.75494 14.57275 37041 ft 468 kts 123°
2026-05-05 14:50 44.72113 14.65134 37058 ft 468 kts 123°
2026-05-05 14:51 44.68756 14.72916 37052 ft 469 kts 123°
2026-05-05 14:51 44.65361 14.80764 37053 ft 470 kts 123°
2026-05-05 14:52 44.61952 14.88623 37069 ft 471 kts 123°
2026-05-05 14:52 44.58531 14.96488 37049 ft 472 kts 123°
2026-05-05 14:53 44.55195 15.04139 37072 ft 473 kts 124°
2026-05-05 14:53 44.51749 15.12019 37060 ft 474 kts 124°
2026-05-05 14:54 44.48293 15.19900 37078 ft 474 kts 124°
2026-05-05 14:54 44.44827 15.27781 37078 ft 475 kts 124°
2026-05-05 14:55 44.41378 15.35604 37076 ft 475 kts 124°
2026-05-05 14:55 44.37909 15.43451 37092 ft 473 kts 124°
2026-05-05 14:56 44.34436 15.51285 37090 ft 473 kts 124°
2026-05-05 14:56 44.30961 15.59101 37046 ft 473 kts 124°
2026-05-05 14:57 44.27497 15.66873 37080 ft 471 kts 124°
2026-05-05 14:57 44.24039 15.74610 37084 ft 471 kts 124°
2026-05-05 14:58 44.20562 15.82368 37079 ft 471 kts 124°
2026-05-05 14:58 44.17104 15.90061 37084 ft 471 kts 124°
2026-05-05 14:59 44.13618 15.97799 37070 ft 472 kts 124°
2026-05-05 14:59 44.10193 16.05380 37064 ft 473 kts 124°
2026-05-05 15:00 44.07274 16.11825 37082 ft 474 kts 124°
2026-05-05 15:00 44.03151 16.20905 37078 ft 475 kts 124°
2026-05-05 15:01 43.99640 16.28615 37077 ft 476 kts 124°
2026-05-05 15:01 43.96087 16.36397 37072 ft 477 kts 124°
2026-05-05 15:02 43.92522 16.44183 37099 ft 477 kts 124°
2026-05-05 15:02 43.88975 16.51909 37083 ft 478 kts 124°
2026-05-05 15:03 43.85387 16.59704 37088 ft 479 kts 124°
2026-05-05 15:03 43.81788 16.67502 37078 ft 480 kts 124°
2026-05-05 15:04 43.78208 16.75239 37085 ft 479 kts 125°
2026-05-05 15:04 43.74594 16.83028 37075 ft 480 kts 125°
2026-05-05 15:05 43.69215 16.94584 37055 ft 478 kts 125°
2026-05-05 15:06 43.65685 17.02141 37066 ft 476 kts 125°
2026-05-05 15:06 43.62087 17.09826 37076 ft 475 kts 125°
2026-05-05 15:07 43.58510 17.17443 37066 ft 475 kts 125°
2026-05-05 15:07 43.54901 17.25110 37077 ft 475 kts 125°
2026-05-05 15:08 43.51300 17.32740 37067 ft 476 kts 125°
2026-05-05 15:08 43.47703 17.40342 37069 ft 476 kts 125°
2026-05-05 15:09 43.44077 17.47984 37059 ft 477 kts 125°
2026-05-05 15:09 43.40435 17.55642 37077 ft 477 kts 125°
2026-05-05 15:10 43.36810 17.63246 37067 ft 479 kts 125°
2026-05-05 15:10 43.33153 17.70896 37079 ft 479 kts 126°
2026-05-05 15:11 43.29487 17.78547 37080 ft 479 kts 125°
2026-05-05 15:11 43.25812 17.86194 37111 ft 479 kts 126°
2026-05-05 15:12 43.21949 17.93642 37112 ft 478 kts 129°
2026-05-05 15:12 43.18054 18.00785 37085 ft 479 kts 129°
2026-05-05 15:13 43.14074 18.08110 37102 ft 478 kts 128°
2026-05-05 15:13 43.10142 18.15396 37091 ft 478 kts 128°
2026-05-05 15:14 43.06184 18.22744 37070 ft 479 kts 128°
2026-05-05 15:14 43.02224 18.30085 37095 ft 478 kts 128°
2026-05-05 15:15 42.98300 18.37339 37100 ft 478 kts 128°
2026-05-05 15:15 42.94325 18.44666 37101 ft 479 kts 128°
2026-05-05 15:16 42.90372 18.51934 37085 ft 480 kts 128°
2026-05-05 15:16 42.86380 18.59257 37082 ft 480 kts 128°
2026-05-05 15:17 42.82387 18.66563 37100 ft 480 kts 128°
2026-05-05 15:17 42.78382 18.73874 37088 ft 481 kts 128°
2026-05-05 15:18 42.74397 18.81130 37095 ft 481 kts 128°
2026-05-05 15:18 42.70386 18.88414 37106 ft 481 kts 128°
2026-05-05 15:19 42.66360 18.95710 37094 ft 481 kts 128°
2026-05-05 15:19 42.62428 19.02817 37076 ft 479 kts 128°
2026-05-05 15:20 42.58400 19.10081 37076 ft 480 kts 129°
2026-05-05 15:20 42.54404 19.17268 37083 ft 480 kts 128°
2026-05-05 15:21 42.50365 19.24515 37084 ft 481 kts 128°
2026-05-05 15:21 42.46317 19.31763 37085 ft 482 kts 128°
2026-05-05 15:22 42.42258 19.39012 37078 ft 483 kts 128°
2026-05-05 15:22 42.38205 19.46232 37090 ft 484 kts 128°
2026-05-05 15:23 42.34112 19.53506 37078 ft 485 kts 128°
2026-05-05 15:23 42.30019 19.60763 37090 ft 485 kts 128°
2026-05-05 15:24 42.25931 19.67992 37080 ft 488 kts 128°
2026-05-05 15:24 42.21801 19.75281 37096 ft 488 kts 129°
2026-05-05 15:25 42.17677 19.82541 37108 ft 486 kts 128°
2026-05-05 15:25 42.13587 19.89722 37099 ft 485 kts 128°
2026-05-05 15:26 42.09469 19.96936 37075 ft 485 kts 129°
2026-05-05 15:26 42.05436 20.03984 37085 ft 484 kts 129°
2026-05-05 15:27 42.02008 20.09963 37069 ft 484 kts 129°
2026-05-05 15:27 41.97235 20.18266 37085 ft 484 kts 129°
2026-05-05 15:28 41.93797 20.24234 37096 ft 485 kts 129°
2026-05-05 15:28 41.89641 20.31431 37131 ft 486 kts 129°
2026-05-05 15:29 41.85474 20.38631 37082 ft 488 kts 129°
2026-05-05 15:29 41.81315 20.45804 37086 ft 490 kts 129°
2026-05-05 15:30 41.77107 20.53048 37069 ft 491 kts 127°
2026-05-05 15:30 41.73238 20.60562 37050 ft 494 kts 123°
2026-05-05 15:31 41.69518 20.68293 37060 ft 493 kts 123°
2026-05-05 15:31 41.65784 20.76008 37050 ft 493 kts 123°
2026-05-05 15:32 41.62036 20.83639 37038 ft 493 kts 123°
2026-05-05 15:32 41.58255 20.91278 37022 ft 492 kts 123°
2026-05-05 15:33 41.54482 20.98881 37039 ft 490 kts 123°
2026-05-05 15:33 41.50777 21.06332 37021 ft 491 kts 123°
2026-05-05 15:34 41.47020 21.13870 37028 ft 490 kts 123°
2026-05-05 15:34 41.43233 21.21453 37030 ft 491 kts 123°
2026-05-05 15:35 41.39441 21.29016 37041 ft 488 kts 123°
2026-05-05 15:35 41.35685 21.36507 37043 ft 488 kts 123°
2026-05-05 15:36 41.31898 21.44033 37040 ft 489 kts 123°
2026-05-05 15:36 41.28093 21.51577 37037 ft 491 kts 123°
2026-05-05 15:37 41.24294 21.59090 37044 ft 493 kts 123°
2026-05-05 15:37 41.20454 21.66666 37027 ft 494 kts 123°
2026-05-05 15:38 41.16597 21.74257 37040 ft 495 kts 123°
2026-05-05 15:38 41.12761 21.81786 37049 ft 496 kts 123°
2026-05-05 15:39 41.08894 21.89363 37029 ft 496 kts 123°
2026-05-05 15:39 41.04933 21.96836 37036 ft 495 kts 126°
2026-05-05 15:40 41.00837 22.03935 37034 ft 494 kts 127°
2026-05-05 15:40 40.96662 22.11117 37025 ft 493 kts 127°
2026-05-05 15:41 40.92533 22.18294 37028 ft 493 kts 126°
2026-05-05 15:41 40.88401 22.25508 37008 ft 492 kts 126°
2026-05-05 15:42 40.84269 22.32713 37007 ft 489 kts 126°
2026-05-05 15:42 40.80150 22.39871 36996 ft 489 kts 126°
2026-05-05 15:43 40.76047 22.46985 36982 ft 490 kts 126°
2026-05-05 15:43 40.71914 22.54133 36982 ft 490 kts 126°
2026-05-05 15:44 40.67777 22.61271 36987 ft 490 kts 126°
2026-05-05 15:44 40.63625 22.68419 36988 ft 491 kts 126°
2026-05-05 15:45 40.59469 22.75559 36993 ft 491 kts 126°
2026-05-05 15:45 40.55299 22.82705 37005 ft 492 kts 126°
2026-05-05 15:46 40.51153 22.89797 36988 ft 492 kts 126°
2026-05-05 15:46 40.46969 22.96935 37004 ft 492 kts 126°
2026-05-05 15:47 40.43418 23.04381 37065 ft 486 kts 114°
2026-05-05 15:47 40.40357 23.12313 37016 ft 487 kts 114°
2026-05-05 15:48 40.37310 23.20198 36973 ft 487 kts 114°
2026-05-05 15:48 40.34205 23.28067 36995 ft 485 kts 115°
2026-05-05 15:49 40.31079 23.35898 37007 ft 484 kts 115°
2026-05-05 15:49 40.27946 23.43712 37033 ft 483 kts 115°
2026-05-05 15:50 40.24815 23.51509 37013 ft 483 kts 115°
2026-05-05 15:50 40.21686 23.59285 37009 ft 483 kts 115°
2026-05-05 15:51 40.18547 23.67067 37032 ft 483 kts 115°
2026-05-05 15:51 40.15429 23.74777 37013 ft 483 kts 115°
2026-05-05 15:52 40.12279 23.82548 37027 ft 484 kts 115°
2026-05-05 15:52 40.09112 23.90336 37041 ft 485 kts 115°
2026-05-05 15:53 40.05934 23.98134 37024 ft 486 kts 115°
2026-05-05 15:53 40.02833 24.05724 37022 ft 485 kts 115°
2026-05-05 15:54 39.99659 24.13472 37036 ft 486 kts 115°
2026-05-05 15:54 39.96475 24.21224 37033 ft 486 kts 115°
2026-05-05 15:55 39.93272 24.29004 37039 ft 485 kts 115°
2026-05-05 15:55 39.90085 24.36723 37031 ft 486 kts 115°
2026-05-05 15:56 39.86875 24.44480 37049 ft 486 kts 115°
2026-05-05 15:56 39.83656 24.52241 37044 ft 486 kts 115°
2026-05-05 15:57 39.80457 24.59931 37040 ft 486 kts 115°
2026-05-05 15:57 39.77229 24.67672 37040 ft 486 kts 115°
2026-05-05 15:58 39.73997 24.75404 37044 ft 486 kts 115°
2026-05-05 15:58 39.70779 24.83084 37046 ft 486 kts 116°
2026-05-05 15:59 39.67540 24.90793 37045 ft 486 kts 116°
2026-05-05 15:59 39.64293 24.98504 37040 ft 486 kts 116°
2026-05-05 16:00 39.61116 25.06033 37059 ft 486 kts 116°
2026-05-05 16:00 39.57720 25.13574 37002 ft 488 kts 122°
2026-05-05 16:00 39.55750 25.17156 37106 ft 486 kts 124°
2026-05-05 16:01 39.53721 25.20687 37055 ft 488 kts 125°
2026-05-05 16:01 39.49638 25.27723 37057 ft 488 kts 125°
2026-05-05 16:02 39.45600 25.34783 37072 ft 488 kts 124°
2026-05-05 16:02 39.41586 25.41874 37046 ft 488 kts 124°
2026-05-05 16:03 39.37576 25.48964 37035 ft 488 kts 124°
2026-05-05 16:03 39.33587 25.55998 37035 ft 487 kts 124°
2026-05-05 16:04 39.29560 25.63078 37064 ft 487 kts 124°
2026-05-05 16:04 39.25571 25.70074 37039 ft 487 kts 124°
2026-05-05 16:05 39.21551 25.77107 37038 ft 486 kts 124°
2026-05-05 16:05 39.17534 25.84123 37053 ft 485 kts 124°
2026-05-05 16:06 39.13551 25.91064 37028 ft 485 kts 124°
2026-05-05 16:06 39.09532 25.98050 37069 ft 484 kts 124°
2026-05-05 16:07 39.05577 26.04914 37051 ft 484 kts 124°
2026-05-05 16:07 39.01559 26.11868 37036 ft 484 kts 125°
2026-05-05 16:08 38.97551 26.18793 37046 ft 483 kts 125°
2026-05-05 16:08 38.93529 26.25728 37031 ft 484 kts 125°
2026-05-05 16:09 38.89530 26.32610 37043 ft 484 kts 125°
2026-05-05 16:09 38.85546 26.39552 37026 ft 482 kts 120°
2026-05-05 16:10 38.82835 26.47314 37069 ft 474 kts 102°
2026-05-05 16:10 38.81699 26.55572 37123 ft 468 kts 94°
2026-05-05 16:11 38.80922 26.62477 37068 ft 471 kts 95°
2026-05-05 16:12 38.78889 26.79148 37037 ft 474 kts 95°
2026-05-05 16:13 38.74926 26.99566 37063 ft 480 kts 118°
2026-05-05 16:13 38.71077 27.06410 37119 ft 481 kts 127°
2026-05-05 16:14 38.62906 27.20003 37047 ft 482 kts 126°
2026-05-05 16:15 38.54830 27.33669 37031 ft 482 kts 126°
2026-05-05 16:16 38.46772 27.47227 36242 ft 472 kts 126°
2026-05-05 16:17 38.42813 27.53865 35432 ft 466 kts 126°
2026-05-05 16:17 38.40846 27.57158 35010 ft 464 kts 126°
2026-05-05 16:18 38.36960 27.63659 34232 ft 459 kts 126°
2026-05-05 16:18 38.35022 27.66898 33773 ft 457 kts 126°
2026-05-05 16:18 38.31209 27.73261 32981 ft 450 kts 126°
2026-05-05 16:19 38.29314 27.76415 32559 ft 447 kts 126°
2026-05-05 16:19 38.27391 27.79558 32211 ft 443 kts 130°
2026-05-05 16:19 38.22795 27.84629 31437 ft 438 kts 145°
2026-05-05 16:20 38.17792 27.89028 30654 ft 434 kts 146°
2026-05-05 16:20 38.12837 27.93392 29901 ft 430 kts 145°
2026-05-05 16:21 38.07996 27.97702 29088 ft 424 kts 145°
2026-05-05 16:22 38.00944 28.04004 28022 ft 412 kts 145°
2026-05-05 16:22 37.96290 28.08165 27280 ft 406 kts 146°
2026-05-05 16:23 37.91728 28.12229 26541 ft 401 kts 146°
2026-05-05 16:23 37.89453 28.14254 26209 ft 397 kts 146°
2026-05-05 16:23 37.84953 28.18253 25502 ft 392 kts 147°
2026-05-05 16:24 37.82725 28.20231 25157 ft 390 kts 147°
2026-05-05 16:24 37.80507 28.22199 24826 ft 388 kts 147°
2026-05-05 16:24 37.76105 28.26100 24117 ft 385 kts 147°
2026-05-05 16:25 37.73922 28.28033 23777 ft 383 kts 147°
2026-05-05 16:25 37.69596 28.31858 23012 ft 379 kts 147°
2026-05-05 16:25 37.67446 28.33757 22650 ft 376 kts 147°
2026-05-05 16:26 37.63178 28.37523 21967 ft 371 kts 147°
2026-05-05 16:26 37.58968 28.41233 21282 ft 365 kts 146°
2026-05-05 16:27 37.56893 28.43061 20960 ft 363 kts 147°
2026-05-05 16:27 37.54852 28.44857 20636 ft 360 kts 146°
2026-05-05 16:27 37.52793 28.46667 20315 ft 358 kts 146°
2026-05-05 16:27 37.50756 28.48456 19979 ft 356 kts 147°
2026-05-05 16:28 37.48673 28.50108 19608 ft 353 kts 159°
2026-05-05 16:28 37.46339 28.50924 19438 ft 342 kts 170°
2026-05-05 16:28 37.44051 28.51586 19025 ft 344 kts 169°
2026-05-05 16:28 37.41732 28.52282 18762 ft 340 kts 169°
2026-05-05 16:29 37.39428 28.52988 18408 ft 341 kts 169°
2026-05-05 16:29 37.37112 28.53704 18065 ft 340 kts 169°
2026-05-05 16:29 37.34820 28.54416 17683 ft 339 kts 168°
2026-05-05 16:29 37.32533 28.55127 17348 ft 337 kts 168°
2026-05-05 16:30 37.30264 28.55832 17024 ft 335 kts 168°
2026-05-05 16:30 37.28014 28.56532 16717 ft 332 kts 168°
2026-05-05 16:30 37.25774 28.57230 16377 ft 330 kts 168°
2026-05-05 16:30 37.23583 28.57911 16099 ft 327 kts 168°
2026-05-05 16:31 37.21379 28.58594 15785 ft 326 kts 168°
2026-05-05 16:31 37.19170 28.59279 15497 ft 327 kts 168°
2026-05-05 16:31 37.16947 28.59967 15190 ft 329 kts 168°
2026-05-05 16:31 37.14792 28.60982 14800 ft 336 kts 147°
2026-05-05 16:32 37.13179 28.63039 14576 ft 330 kts 120°
2026-05-05 16:32 37.12349 28.65682 14256 ft 324 kts 97°
2026-05-05 16:32 37.12316 28.68460 13960 ft 317 kts 78°
2026-05-05 16:32 37.12696 28.71123 13679 ft 313 kts 75°
2026-05-05 16:33 37.13106 28.73815 13317 ft 313 kts 76°
2026-05-05 16:33 37.13500 28.76492 13026 ft 311 kts 76°
2026-05-05 16:33 37.13882 28.79152 12724 ft 309 kts 77°
2026-05-05 16:33 37.14256 28.81805 12421 ft 307 kts 77°
2026-05-05 16:34 37.14625 28.84440 12143 ft 304 kts 77°
2026-05-05 16:34 37.14989 28.87042 11869 ft 301 kts 77°
2026-05-05 16:34 37.15342 28.89583 11597 ft 299 kts 76°
2026-05-05 16:34 37.15696 28.92139 11329 ft 296 kts 77°
2026-05-05 16:35 37.15651 28.94712 10986 ft 300 kts 104°
2026-05-05 16:35 37.14690 28.97007 10746 ft 298 kts 129°
2026-05-05 16:35 37.13197 28.98804 10437 ft 297 kts 139°
2026-05-05 16:35 37.11687 29.00445 10277 ft 288 kts 138°
2026-05-05 16:36 37.10237 29.02042 10197 ft 268 kts 137°
2026-05-05 16:36 37.08884 29.03544 10075 ft 250 kts 137°
2026-05-05 16:36 37.07525 29.04751 9924 ft 234 kts 160°
2026-05-05 16:36 37.05983 29.04927 9812 ft 215 kts 191°
2026-05-05 16:37 37.04627 29.04352 9573 ft 201 kts 212°
2026-05-05 16:37 37.03540 29.03299 9129 ft 198 kts 226°
2026-05-05 16:37 37.02562 29.02114 8670 ft 197 kts 227°
2026-05-05 16:37 37.01587 29.00913 8234 ft 197 kts 227°
2026-05-05 16:38 37.00590 28.99683 7612 ft 208 kts 227°
2026-05-05 16:38 36.99542 28.98393 7039 ft 214 kts 227°
2026-05-05 16:38 36.98462 28.97067 6454 ft 220 kts 227°
2026-05-05 16:38 36.97357 28.95715 5846 ft 223 kts 227°
2026-05-05 16:39 36.96238 28.94348 5230 ft 228 kts 227°
2026-05-05 16:39 36.95109 28.92969 4873 ft 219 kts 226°
2026-05-05 16:39 36.94093 28.91738 4859 ft 194 kts 226°
2026-05-05 16:39 36.93146 28.90599 4804 ft 188 kts 227°
2026-05-05 16:40 36.92180 28.89415 4850 ft 198 kts 228°
2026-05-05 16:40 36.91177 28.88187 4840 ft 202 kts 226°
2026-05-05 16:40 36.90170 28.86962 4729 ft 205 kts 228°
2026-05-05 16:40 36.89131 28.85710 4426 ft 205 kts 225°
2026-05-05 16:41 36.87892 28.84875 4087 ft 200 kts 194°
2026-05-05 16:41 36.86546 28.84444 3746 ft 204 kts 197°
2026-05-05 16:41 36.85177 28.83950 3349 ft 202 kts 198°
2026-05-05 16:41 36.83850 28.83493 3026 ft 199 kts 196°
2026-05-05 16:42 36.82528 28.83047 2696 ft 192 kts 196°
2026-05-05 16:42 36.81282 28.82625 2364 ft 177 kts 197°
2026-05-05 16:42 36.80154 28.82242 2060 ft 165 kts 195°
2026-05-05 16:42 36.79084 28.81881 1739 ft 154 kts 197°
2026-05-05 16:43 36.78068 28.81535 1514 ft 156 kts 198°
2026-05-05 16:43 36.77014 28.81176 1231 ft 156 kts 197°
2026-05-05 16:43 36.75980 28.80828 949 ft 153 kts 197°
2026-05-05 16:43 36.74961 28.80512 637 ft 146 kts 199°
2026-05-05 16:44 36.74029 28.80196 363 ft 135 kts 197°
2026-05-05 16:44 36.73128 28.79880 183 ft 132 kts 198°
2026-05-05 16:44 36.72287 28.79578 17 ft 123 kts 196°
2026-05-05 16:44 36.71588 28.79343 11 ft 75 kts 194°
2026-05-05 16:45 36.71135 28.79190 12 ft 63 kts 195°
2026-05-05 16:45 36.70765 28.79062 13 ft 42 kts 202°
2026-05-05 16:45 36.70635 28.78949 13 ft 13 kts 221°
2026-05-05 16:45 36.70570 28.78870 13 ft 15 kts 229°
2026-05-05 16:46 36.70578 28.78785 12 ft 10 kts 343°
2026-05-05 16:46 36.70661 28.78809 12 ft 15 kts 20°
2026-05-05 16:46 36.70777 28.78856 12 ft 20 kts 15°
2026-05-05 16:46 36.70921 28.78902 12 ft 22 kts 14°
2026-05-05 16:47 36.71074 28.78957 12 ft 23 kts 17°
2026-05-05 16:47 36.71224 28.79007 12 ft 23 kts 14°
2026-05-05 16:47 36.71326 28.78995 12 ft 12 kts 297°
2026-05-05 16:47 36.71347 28.78889 12 ft 14 kts 283°
2026-05-05 16:48 36.71420 28.78840 12 ft 15 kts 13°
2026-05-05 16:48 36.71523 28.78884 11 ft 17 kts 15°
2026-05-05 16:48 36.71645 28.78924 11 ft 19 kts 15°
2026-05-05 16:48 36.71779 28.78976 11 ft 21 kts 16°
2026-05-05 16:49 36.71923 28.79024 11 ft 23 kts 14°
2026-05-05 16:49 36.72059 28.79070 11 ft 17 kts 14°
2026-05-05 16:49 36.72106 28.79032 11 ft 3 kts 290°
2026-05-05 16:49 36.72113 28.79008 11 ft 1 kts 285°